Temperature
18 18 18 18 18 18 18 18 18 18 18 18 18 18 18 18 18 18 18 18 18 18 17 17 17 17 17 17 17 17 17 17 16 16 16 16 16 16 16 16 16 16 16
18 18 18 18 18 17 17 17 18 18 18 18 18 18 18 18 17 18 18 18 18 17 17 17 17 17 17 17 17 17 16 16 16 16 16 16 16 16 16 16 16 16 16
18 18 18 18 17 18 18 17 17 17 18 18 18 18 18 18 18 17 17 17 17 17 17 17 17 17 17 17 17 16 16 16 16 16 16 16 16 16 16 16 16 16 16
18 18 17 17 17 18 18 17 17 18 18 18 17 17 18 18 18 17 17 17 17 17 17 17 17 17 17 17 17 16 16 16 16 16 16 16 16 16 16 16 16 16 16
18 18 17 17 17 17 17 17 17 17 17 18 18 18 18 18 18 18 17 17 17 17 17 17 17 17 17 17 16 16 16 16 16 16 16 16 16 16 16 16 16 16 16
18 17 17 17 17 17 17 17 17 17 17 17 18 18 18 18 18 17 17 17 17 17 17 17 17 16 16 16 16 16 16 16 16 16 16 16 16 16 16 16 16 16 15
18 17 17 17 17 17 17 17 17 17 17 17 17 18 18 18 18 18 18 17 17 17 17 16 16 16 16 16 16 16 16 16 16 16 16 16 15 15 15 15 15 15 15
18 18 17 17 17 17 17 17 17 17 17 17 17 17 18 17 18 18 18 17 17 17 17 17 16 16 16 16 16 16 16 16 16 16 15 15 15 15 15 15 15 15 15
18 17 17 17 17 17 17 17 17 17 17 17 17 17 18 18 18 18 18 18 17 17 17 17 17 16 16 16 16 16 15 15 15 15 15 15 15 15 15 15 15 15 15
17 17 17 17 17 17 17 17 17 17 17 17 17 17 18 18 18 17 18 18 17 17 17 17 17 16 16 16 16 16 15 15 15 15 15 15 15 15 15 15 15 15 15
17 17 17 17 17 17 17 16 16 16 17 17 17 17 18 18 18 18 18 17 17 17 17 17 17 16 16 16 16 16 16 15 15 15 15 15 15 15 15 15 15 15 14
17 17 17 17 17 17 16 16 16 16 16 17 17 17 17 17 18 18 18 18 18 17 17 17 17 16 16 16 16 16 16 15 15 15 15 15 15 15 15 15 14 14 14
17 17 17 17 17 17 16 16 16 16 16 17 17 17 17 17 18 18 18 18 18 18 17 17 17 17 16 16 16 16 15 15 15 15 15 15 15 14 14 14 14 14 14
17 17 17 17 16 16 16 16 16 16 16 16 17 17 17 17 17 17 18 18 18 18 18 17 17 17 16 16 16 16 15 15 15 15 15 15 15 14 14 14 14 14 14
17 17 17 17 16 16 16 16 16 16 16 16 16 16 16 17 17 17 17 17 17 17 17 18 17 17 17 16 16 16 15 15 15 15 15 15 15 15 14 14 14 14 14
17 17 17 17 16 16 16 16 16 16 16 16 16 16 16 16 16 16 17 17 17 17 17 17 17 17 17 16 16 16 15 15 15 15 15 15 15 15 14 14 14 14 14
17 17 17 17 16 16 16 16 16 16 16 16 16 16 16 16 16 16 16 16 16 16 16 17 17 17 16 16 16 16 15 15 15 15 15 15 15 15 15 14 14 14 14
17 17 17 16 16 16 16 16 16 15 15 15 15 15 16 16 16 16 16 16 16 16 16 16 16 16 16 16 16 16 15 15 15 15 15 15 15 15 15 15 15 14 14
17 17 17 16 16 16 16 16 16 15 15 15 15 15 15 15 15 16 16 15 15 15 16 16 16 16 16 16 15 15 15 15 15 15 15 15 15 15 15 15 15 14 14
17 17 17 17 16 16 16 16 16 16 15 15 15 15 15 15 15 15 15 15 15 15 15 15 15 15 15 15 15 15 15 15 15 15 15 15 15 15 15 15 15 15 15
17 17 17 17 16 16 16 16 16 16 15 15 15 15 15 15 15 15 15 15 15 15 15 15 15 15 15 15 15 15 15 14 14 14 15 14 14 14 14 14 14 14 14
17 17 16 16 16 16 16 16 16 16 16 15 15 15 15 15 15 15 15 15 15 15 14 14 14 15 15 15 15 15 14 14 14 14 14 14 14 14 14 14 14 14 14
17 17 17 16 16 16 16 16 16 16 16 15 15 15 15 15 15 15 15 15 15 15 15 14 14 14 14 14 14 14 14 14 14 14 14 14 14 14 14 14 14 14 14
17 17 17 17 17 16 16 16 16 16 16 15 15 15 15 15 15 15 15 15 15 15 15 14 14 14 14 14 14 13 13 13 13 13 13 13 14 14 14 13 13 14 14
17 17 17 16 16 16 16 16 16 16 15 15 15 15 15 15 15 15 14 14 14 14 14 14 14 14 14 14 13 13 13 12 12 13 13 13 13 13 13 13 13 13 13
17 16 16 16 16 16 16 16 16 15 15 15 15 15 15 15 14 14 14 14 14 14 14 13 13 13 13 13 13 13 13 12 12 12 13 13 12 12 12 12 13 13 13
Wind_Speed
5 6 5 5 7 7 5 2 3 3 2 1 2 3 3 7 11 12 13 13 13 11 10 10 9 8 7 7 7 6 6 6 6 7 6 6 6 6 6 6 5 5 5
6 5 4 3 4 6 5 4 4 3 1 1 2 2 3 5 9 12 13 12 12 11 10 10 9 8 8 7 7 6 6 6 7 7 7 6 7 6 6 6 6 6 6
9 6 4 3 4 6 5 4 3 3 2 2 2 2 2 3 6 10 12 12 12 11 10 10 9 8 8 7 7 6 6 6 7 8 8 7 7 7 7 6 6 6 6
10 6 4 3 5 6 4 2 2 2 1 1 2 1 2 2 4 6 9 11 12 11 11 11 10 10 9 8 8 7 7 7 7 8 8 8 8 8 8 8 7 8 8
10 6 4 4 5 4 3 3 3 1 2 1 2 2 2 3 3 4 5 9 11 13 12 13 12 11 10 9 9 8 8 8 8 8 8 9 9 9 9 9 9 9 9
10 6 5 6 4 2 2 2 3 1 1 2 2 3 1 3 3 3 4 6 10 12 13 13 12 11 11 10 9 9 8 8 8 8 8 9 9 9 9 10 10 10 10
10 6 5 5 3 3 3 4 3 3 2 2 1 2 2 2 3 3 3 3 5 9 11 13 12 11 11 12 10 9 8 7 8 8 8 8 8 9 9 9 10 11 11
10 8 5 6 4 4 4 3 2 2 3 3 2 2 2 2 2 4 4 4 4 6 7 11 11 10 10 11 11 11 9 8 7 7 7 7 7 8 8 8 9 10 11
10 7 7 5 5 5 5 4 4 4 2 2 2 1 1 2 3 2 4 3 3 3 3 5 9 10 9 11 12 11 10 8 7 7 6 6 6 7 7 7 7 8 9
9 9 7 6 5 4 5 6 6 4 3 3 2 1 1 1 0 2 2 3 5 4 2 3 4 9 9 10 12 13 12 10 8 7 6 6 6 7 7 8 7 7 8
8 9 8 6 5 4 5 4 4 4 3 3 2 2 2 2 3 2 3 4 4 4 4 3 3 5 9 11 13 15 15 12 10 8 7 6 6 6 7 8 8 8 8
7 8 8 6 6 5 5 4 4 4 3 2 1 2 2 2 3 3 2 5 5 4 5 4 3 4 7 10 11 16 17 14 12 9 8 6 6 6 6 7 7 8 8
7 8 8 6 5 5 5 4 4 4 4 3 2 3 2 2 1 2 1 2 2 2 3 4 4 5 7 8 12 16 16 15 13 11 10 9 8 7 7 7 8 8 8
7 8 7 7 6 6 6 5 5 5 4 3 4 3 3 3 2 2 1 1 1 2 3 5 4 5 6 8 13 16 14 17 15 14 13 11 11 10 10 10 10 10 10
8 9 8 8 6 6 6 6 4 4 4 4 4 4 3 3 3 3 2 1 1 3 3 4 3 4 7 8 14 13 11 17 18 17 16 15 14 13 13 12 12 12 12
8 10 8 8 7 7 6 6 5 5 5 5 4 4 3 3 3 2 2 2 2 2 3 1 2 3 4 6 13 10 9 14 19 20 19 18 17 17 16 16 15 15 14
9 9 8 7 7 7 7 6 5 6 7 6 5 4 4 3 3 3 2 2 2 2 3 3 1 1 3 2 5 7 8 10 14 21 23 22 21 20 19 19 18 17 17
8 8 8 8 8 8 7 7 7 7 7 7 6 6 5 5 4 3 3 3 2 2 2 4 2 1 3 5 5 5 7 10 11 16 24 25 24 23 22 21 21 20 20
9 9 9 9 8 8 8 8 8 7 7 7 7 6 6 6 5 4 4 4 3 4 3 3 4 3 3 4 5 6 7 7 12 13 18 24 25 24 24 24 23 23 22
10 9 9 9 9 8 8 8 8 8 7 6 6 6 7 7 7 6 5 5 5 5 4 4 5 5 4 5 4 4 5 6 7 10 10 14 20 25 27 27 26 25 25
11 9 9 9 9 9 9 10 9 9 8 7 6 7 8 8 8 7 6 5 6 5 5 5 6 5 5 4 4 4 6 5 6 6 5 6 7 10 16 23 26 27 27
9 9 10 10 10 10 11 13 10 8 7 8 7 7 7 7 9 10 10 8 6 6 6 5 6 6 5 5 4 4 4 5 5 4 4 6 5 6 7 13 18 25 27
9 8 9 8 8 7 9 12 12 8 6 7 7 7 8 9 10 9 11 12 12 13 11 7 8 8 7 5 4 5 5 6 6 5 5 7 6 7 7 13 15 17 21
8 8 8 8 7 8 10 11 11 8 7 6 6 6 7 6 6 6 7 8 9 10 11 10 10 10 10 6 5 6 6 7 7 7 6 8 7 7 8 9 14 15 18
7 7 6 6 6 6 8 10 10 6 6 7 7 7 6 6 7 7 7 7 7 7 11 14 14 14 14 14 9 5 7 7 8 7 6 7 7 7 7 7 12 17 19
6 6 5 5 5 4 5 7 8 5 5 6 6 6 7 7 7 7 6 6 8 7 7 7 8 11 12 13 15 11 9 9 8 7 6 5 6 5 6 6 6 9 11
Wind_Direction
146 140 140 159 160 152 156 150 107 93 72 73 105 94 79 99 118 125 139 149 149 152 154 155 156 157 158 161 164 165 165 165 164 165 165 165 162 159 156 154 154 154 152
140 136 143 162 144 141 135 137 127 137 163 90 79 85 67 98 119 131 143 153 158 161 164 166 168 170 173 176 182 186 185 184 180 180 182 185 184 180 179 179 177 178 176
142 146 149 163 135 126 124 135 134 154 164 151 136 126 117 119 125 135 147 156 161 167 171 173 175 178 182 185 191 196 197 199 199 196 196 199 201 200 200 198 197 197 196
153 155 154 153 140 140 148 136 169 167 119 135 155 183 126 122 140 149 156 160 161 167 176 183 185 188 190 193 197 201 203 206 207 206 207 210 214 215 213 213 212 212 212
164 167 144 131 155 151 155 175 151 138 147 180 191 177 183 160 148 174 161 160 159 160 169 184 190 192 196 200 203 207 209 209 211 214 217 219 221 221 221 222 223 223 223
170 169 139 142 167 152 134 107 124 129 162 218 236 161 174 152 171 165 181 170 164 170 172 172 183 194 201 202 205 207 209 208 211 216 221 224 225 225 226 226 228 229 230
166 173 149 153 169 152 152 154 149 168 209 196 219 156 190 190 173 155 192 179 170 172 166 170 181 184 188 200 203 203 206 209 211 216 221 223 228 229 228 231 233 235 237
166 178 154 167 165 155 168 171 157 186 213 184 198 183 180 199 221 195 178 183 179 170 174 178 177 176 181 176 194 200 202 204 208 213 218 222 225 227 228 232 236 237 238
173 178 165 172 168 175 170 179 179 207 220 207 208 218 221 187 178 180 206 176 150 162 191 173 178 174 180 172 174 188 195 198 203 210 213 217 222 226 228 232 237 240 241
176 177 175 169 173 173 162 195 189 205 207 224 215 205 202 61 201 152 215 171 166 183 218 203 188 174 184 167 168 174 183 187 193 203 212 219 225 229 231 234 239 244 248
182 181 175 166 172 178 170 192 170 207 210 226 229 208 215 216 243 212 194 177 189 186 193 204 200 186 187 174 170 173 179 183 188 195 204 213 222 229 234 237 242 247 251
184 181 174 168 180 181 169 178 172 203 230 248 283 264 209 211 234 244 205 193 196 194 182 176 185 199 197 187 184 173 177 182 188 194 202 212 221 229 235 238 245 251 255
182 181 175 170 181 172 168 172 181 206 208 217 247 281 289 264 259 272 250 229 194 172 167 186 193 198 207 172 159 168 180 186 193 200 209 217 225 232 237 240 247 254 259
178 169 163 171 176 172 178 173 191 199 190 202 230 248 300 299 308 295 289 291 259 227 194 201 186 186 195 163 167 175 185 194 201 208 216 222 229 235 239 243 247 253 257
171 163 165 172 175 177 179 173 204 191 172 194 223 215 245 271 282 289 287 276 252 267 244 209 180 178 177 162 167 188 191 201 207 214 220 226 232 237 240 245 249 252 255
162 160 165 171 172 175 179 183 196 182 184 207 220 208 215 259 252 254 264 264 264 273 282 265 203 172 172 184 177 198 211 206 212 219 224 229 233 236 240 245 249 252 254
159 163 169 171 174 180 183 189 207 182 193 207 216 205 203 253 285 280 258 255 256 264 272 288 268 174 149 153 166 218 237 225 221 225 227 230 233 236 239 243 247 250 253
166 169 176 178 184 187 188 194 213 200 198 202 210 214 205 217 224 267 284 266 252 240 254 279 278 222 193 193 194 217 243 249 245 237 227 229 232 235 238 242 245 248 251
178 179 183 188 193 193 192 200 212 216 209 206 207 210 212 217 217 223 242 264 265 254 224 253 267 252 227 218 211 226 242 255 264 261 234 229 232 235 239 242 244 246 249
183 185 188 192 196 199 198 203 211 220 218 215 212 211 215 216 217 218 229 240 258 269 252 244 257 254 240 222 206 221 243 238 245 260 253 233 229 234 238 242 244 246 247
190 189 192 198 200 205 209 205 208 214 214 220 221 219 223 221 217 212 228 225 234 242 250 245 249 250 246 237 223 224 243 249 243 241 246 248 232 232 239 243 246 248 248
194 191 196 203 206 214 209 199 200 212 206 212 221 224 227 221 217 215 226 235 236 241 249 256 260 258 254 248 244 248 256 263 267 257 253 262 258 246 237 237 240 240 243
195 197 200 201 209 218 205 193 198 208 214 215 216 218 233 234 214 219 223 230 239 241 237 248 264 272 281 288 291 280 275 276 272 277 282 273 263 264 260 267 258 246 242
193 197 201 203 207 216 200 193 198 210 227 231 231 226 228 251 240 227 230 230 234 238 235 235 245 255 263 275 277 275 275 275 270 263 257 265 266 263 268 268 270 261 249
193 196 198 206 212 214 198 195 194 209 223 236 242 243 234 231 236 232 235 243 247 249 243 240 236 242 247 252 253 266 266 264 269 266 249 253 263 266 264 264 266 263 255
191 194 198 203 208 209 192 190 195 217 228 237 237 239 246 243 242 228 237 247 254 260 271 271 254 251 250 251 242 232 244 255 263 269 257 253 265 270 272 259 258 264 259
Height
1554 1555 1557 1559 1561 1563 1564 1566 1567 1568 1569 1570 1571 1572 1573 1574 1574 1576 1577 1578 1579 1579 1580 1581 1582 1584 1585 1586 1587 1588 1589 1590 1591 1592 1593 1593 1594 1595 1596 1596 1597 1598 1599
1553 1555 1557 1559 1561 1563 1564 1566 1567 1568 1569 1570 1571 1572 1574 1575 1576 1576 1577 1578 1579 1580 1580 1582 1583 1584 1585 1585 1586 1587 1588 1589 1590 1591 1592 1593 1594 1595 1596 1596 1597 1598 1598
1553 1555 1557 1559 1561 1562 1564 1566 1567 1568 1570 1571 1571 1573 1574 1575 1576 1576 1577 1578 1579 1579 1580 1581 1582 1583 1584 1585 1586 1587 1588 1589 1589 1590 1591 1592 1593 1594 1595 1596 1596 1597 1598
1552 1554 1556 1558 1560 1562 1564 1565 1567 1568 1570 1571 1572 1573 1574 1575 1576 1577 1577 1578 1578 1579 1580 1581 1582 1583 1583 1584 1585 1586 1587 1588 1588 1589 1590 1591 1592 1593 1594 1595 1595 1596 1597
1550 1553 1555 1557 1559 1561 1563 1565 1566 1567 1569 1570 1571 1573 1574 1575 1576 1577 1577 1578 1578 1579 1580 1581 1581 1582 1583 1583 1584 1585 1585 1586 1587 1588 1588 1589 1590 1591 1592 1593 1594 1594 1595
1549 1552 1554 1555 1558 1560 1561 1563 1565 1566 1568 1569 1571 1572 1573 1574 1575 1576 1577 1578 1578 1579 1579 1580 1581 1581 1582 1582 1583 1584 1584 1585 1585 1586 1587 1587 1588 1589 1590 1590 1591 1592 1593
1547 1549 1552 1554 1556 1558 1560 1562 1564 1565 1567 1569 1570 1572 1573 1574 1574 1575 1576 1577 1578 1578 1579 1579 1580 1580 1580 1581 1582 1582 1583 1583 1584 1584 1585 1585 1586 1587 1587 1588 1589 1589 1590
1545 1548 1550 1552 1554 1556 1558 1560 1562 1564 1566 1568 1569 1570 1572 1574 1573 1574 1575 1576 1577 1578 1578 1579 1579 1579 1579 1580 1580 1581 1581 1582 1582 1582 1583 1583 1584 1584 1584 1585 1586 1586 1587
1543 1546 1548 1550 1552 1554 1556 1559 1561 1563 1565 1567 1568 1570 1570 1571 1572 1573 1574 1575 1576 1577 1577 1578 1578 1578 1578 1578 1579 1579 1580 1580 1580 1580 1581 1581 1581 1581 1582 1582 1583 1583 1584
1541 1544 1546 1548 1550 1553 1555 1557 1559 1561 1563 1565 1567 1568 1569 1570 1571 1572 1573 1574 1574 1575 1576 1577 1577 1577 1577 1577 1577 1577 1578 1578 1578 1578 1578 1578 1579 1579 1579 1579 1579 1580 1580
1538 1541 1544 1546 1548 1551 1553 1555 1557 1559 1561 1563 1565 1566 1567 1568 1569 1571 1571 1572 1573 1573 1574 1575 1575 1576 1576 1576 1575 1575 1576 1576 1576 1576 1576 1576 1576 1576 1576 1576 1576 1576 1577
1536 1539 1541 1544 1546 1549 1551 1553 1554 1557 1559 1561 1562 1564 1566 1567 1568 1569 1569 1570 1570 1571 1571 1572 1573 1574 1574 1574 1574 1574 1574 1574 1574 1574 1574 1574 1574 1574 1574 1574 1574 1573 1573
1533 1536 1539 1541 1544 1546 1548 1550 1552 1554 1556 1558 1560 1562 1563 1565 1566 1566 1567 1568 1568 1569 1569 1570 1571 1571 1572 1572 1572 1572 1572 1572 1572 1572 1572 1572 1572 1572 1572 1571 1571 1570 1570
1530 1533 1536 1539 1541 1543 1546 1548 1550 1552 1553 1555 1557 1559 1560 1562 1563 1564 1565 1566 1566 1567 1567 1567 1568 1568 1569 1569 1569 1569 1570 1570 1570 1569 1569 1569 1569 1569 1568 1568 1568 1567 1567
1528 1531 1533 1536 1539 1541 1543 1545 1548 1549 1551 1552 1554 1556 1558 1559 1560 1562 1562 1563 1565 1564 1565 1565 1565 1566 1566 1567 1567 1567 1567 1567 1567 1567 1566 1566 1566 1565 1565 1564 1564 1564 1563
1525 1528 1531 1533 1536 1538 1541 1543 1545 1547 1549 1550 1552 1553 1555 1556 1558 1559 1560 1561 1561 1562 1563 1563 1563 1564 1564 1565 1564 1564 1564 1564 1563 1563 1563 1563 1562 1562 1561 1560 1560 1560 1559
1523 1526 1529 1531 1534 1536 1538 1541 1543 1545 1546 1548 1549 1551 1552 1553 1554 1556 1557 1558 1559 1559 1560 1561 1561 1561 1561 1562 1561 1561 1561 1560 1560 1559 1559 1559 1558 1558 1557 1556 1556 1555 1555
1521 1524 1527 1529 1532 1534 1536 1538 1540 1542 1544 1545 1547 1548 1549 1551 1551 1553 1554 1555 1556 1556 1557 1557 1558 1558 1558 1558 1558 1557 1557 1557 1556 1555 1555 1555 1554 1553 1553 1552 1551 1550 1550
1518 1521 1524 1527 1529 1532 1534 1536 1538 1540 1542 1543 1544 1545 1546 1548 1548 1549 1550 1552 1552 1553 1554 1554 1554 1555 1555 1554 1554 1553 1553 1552 1552 1551 1551 1550 1550 1549 1548 1547 1546 1546 1545
1515 1518 1521 1524 1527 1529 1531 1533 1535 1537 1539 1540 1541 1542 1543 1544 1545 1546 1547 1548 1549 1549 1550 1550 1550 1550 1551 1550 1550 1549 1548 1548 1547 1547 1546 1545 1544 1544 1543 1542 1542 1541 1540
1513 1516 1519 1522 1524 1526 1528 1530 1532 1534 1535 1537 1538 1539 1540 1540 1541 1542 1543 1544 1545 1545 1546 1546 1546 1546 1546 1546 1545 1545 1544 1543 1543 1543 1542 1541 1540 1538 1538 1537 1536 1535 1535
1510 1513 1516 1518 1520 1523 1525 1527 1529 1531 1532 1533 1534 1535 1536 1537 1538 1538 1539 1540 1541 1541 1541 1541 1541 1542 1541 1542 1542 1541 1540 1539 1538 1538 1537 1535 1535 1533 1532 1531 1530 1529 1529
1507 1510 1512 1514 1517 1519 1521 1523 1525 1527 1528 1529 1530 1531 1532 1533 1533 1534 1534 1535 1535 1536 1536 1536 1536 1535 1536 1536 1536 1535 1534 1533 1532 1532 1531 1528 1528 1527 1527 1526 1525 1524 1522
1504 1506 1509 1511 1513 1514 1516 1518 1520 1522 1523 1524 1526 1527 1527 1528 1529 1530 1530 1530 1529 1530 1530 1530 1530 1529 1530 1530 1530 1529 1528 1527 1525 1525 1525 1522 1521 1520 1519 1518 1518 1517 1516
1501 1503 1505 1507 1508 1510 1512 1514 1516 1517 1518 1519 1521 1522 1522 1523 1524 1524 1525 1525 1524 1524 1524 1524 1524 1523 1523 1523 1523 1523 1521 1520 1518 1517 1518 1516 1514 1513 1511 1510 1510 1509 1508
1497 1499 1501 1503 1504 1506 1507 1509 1511 1512 1513 1514 1515 1516 1517 1518 1518 1519 1519 1519 1518 1518 1519 1518 1518 1517 1517 1516 1516 1516 1514 1513 1511 1510 1510 1510 1507 1506 1503 1502 1502 1501 1500